Home   Weather   Midland   Past weeks

Flag for USA Past Weather in Midland, Texas, USA — Yesterday and Last 2 Weeks

Now
84 °F

Sunny.


Feels Like: 82 °F
Forecast: 56 / 85 °F
Wind: 3 mph from Northwest

Location: Midland - Midland Airpark

Current Time: Sep 28, 2016 at 3:40:03 PM

Latest Report: Sep 28, 2016 at 2:55 PM


Visibility: 10 mi

Pressure: 30.15 "Hg (27.40 "Hg at 847m altitude)

Humidity: 24%

Dew Point: 43 °F

Location of MidlandLocation

Past Weather in Midland — Graph

°F

Midland Temperature Yesterday

Maximum temperature yesterday: 78 °F (at 5:55 PM)
Minimum temperature yesterday: 56 °F (at 5:55 AM)
Average temperature yesterday: 67 °F

High & Low Weather Summary for the Past Weeks

 TemperatureHumidityPressure
High96 °F (Sep 19, 4:15 PM)100% (Sep 14, 8:15 AM)30.34 "Hg (Sep 14, 8:15 AM)
Low55 °F (Sep 28, 6:55 AM)22% (Sep 19, 4:55 PM)29.89 "Hg (Sep 23, 5:55 PM)
Average76 °F59%30.09 "Hg
* Reported Sep 13 2:15 PM — Sep 28 2:15 PM, Midland, Weather by CustomWeather, © 2016

Note: Actual official high and low records may vary slightly from our data, if they occured in-between our weather recording intervals... More about our weather records

Advertising

Midland Weather History for the Previous 24 Hours

Scroll right to see more
 ConditionsComfort  
Time TempWeatherWind HumidityBarometerVisibility
2:15 PM
Wed, Sep 28
82 °FSunny.No wind24%30.18 "Hg10 mi
1:55 PM82 °FSunny.No wind26%30.19 "Hg10 mi
1:35 PM82 °FSunny.No wind26%30.19 "Hg10 mi
1:15 PM81 °FSunny.No wind28%30.19 "Hg10 mi
12:55 PM80 °FSunny.No wind30%30.20 "Hg10 mi
12:15 PM79 °FSunny.5 mph31%30.20 "Hg10 mi
11:55 AM77 °FSunny.5 mph37%30.21 "Hg10 mi
11:35 AM76 °FSunny.No wind41%30.21 "Hg10 mi
11:15 AM74 °FSunny.5 mph43%30.21 "Hg10 mi
10:55 AM73 °FSunny.6 mph46%30.21 "Hg10 mi
10:35 AM72 °FSunny.6 mph48%30.21 "Hg10 mi
10:15 AM71 °FSunny.7 mph53%30.20 "Hg10 mi
9:55 AM68 °FSunny.5 mph61%30.20 "Hg10 mi
9:35 AM64 °FSunny.3 mph67%30.19 "Hg10 mi
9:15 AM61 °FSunny.5 mph72%30.19 "Hg10 mi
8:55 AM60 °FSunny.5 mph75%30.18 "Hg10 mi
8:35 AM58 °FSunny.5 mph79%30.18 "Hg10 mi
8:15 AM56 °FSunny.3 mph82%30.17 "Hg10 mi
7:55 AM55 °FSunny.No wind81%30.15 "Hg10 mi
7:35 AM55 °FClear.3 mph82%30.15 "Hg10 mi
7:15 AM56 °FClear.No wind80%30.15 "Hg10 mi
6:55 AM55 °FClear.No wind82%30.14 "Hg10 mi
6:35 AM55 °FClear.No wind81%30.14 "Hg10 mi
6:15 AM56 °FClear.No wind80%30.14 "Hg10 mi
5:55 AM56 °FClear.3 mph79%30.14 "Hg10 mi
5:15 AM57 °FClear.3 mph78%30.13 "Hg10 mi
4:55 AM57 °FClear.3 mph76%30.13 "Hg10 mi
4:35 AM58 °FClear.3 mph75%30.13 "Hg10 mi
4:15 AM58 °FClear.3 mph72%30.13 "Hg10 mi
3:55 AM58 °FClear.No wind72%30.13 "Hg10 mi
3:35 AM58 °FClear.3 mph71%30.13 "Hg10 mi
3:15 AM58 °FClear.No wind72%30.13 "Hg10 mi
2:55 AM58 °FClear.3 mph71%30.13 "Hg10 mi
2:15 AM61 °FClear.No wind66%30.14 "Hg10 mi
1:55 AM61 °FClear.5 mph66%30.14 "Hg10 mi
1:35 AM62 °FClear.3 mph63%30.14 "Hg10 mi
1:15 AM62 °FClear.No wind62%30.14 "Hg10 mi
12:55 AM62 °FClear.No wind63%30.15 "Hg10 mi
12:35 AM64 °FClear.3 mph54%30.15 "Hg10 mi
12:15 AM65 °FClear.No wind52%30.15 "Hg10 mi
11:55 PM
Tue, Sep 27
65 °FClear.No wind52%30.15 "Hg10 mi
11:35 PM65 °FClear.No wind51%30.15 "Hg10 mi
11:15 PM65 °FClear.No wind52%30.15 "Hg10 mi
10:55 PM67 °FClear.3 mph49%30.14 "Hg10 mi
10:35 PM69 °FClear.No wind43%30.14 "Hg10 mi
10:15 PM68 °FClear.No wind45%30.14 "Hg10 mi
9:55 PM67 °FClear.No wind47%30.15 "Hg10 mi
9:15 PM69 °FClear.No wind43%30.14 "Hg10 mi
8:55 PM71 °FClear.3 mph38%30.13 "Hg10 mi
8:35 PM71 °FClear.5 mph38%30.13 "Hg10 mi
8:15 PM73 °FClear.3 mph34%30.12 "Hg10 mi
7:55 PM75 °FClear.3 mph30%30.12 "Hg10 mi
7:15 PM76 °FSunny.No wind28%30.12 "Hg10 mi
6:55 PM76 °FSunny.No wind26%30.12 "Hg10 mi
6:35 PM77 °FSunny.No wind26%30.12 "Hg10 mi
6:15 PM78 °FSunny.5 mph26%30.12 "Hg10 mi
5:55 PM78 °FSunny.3 mph26%30.12 "Hg10 mi
5:35 PM78 °FSunny.5 mph26%30.12 "Hg10 mi
5:15 PM77 °FSunny.5 mph27%30.12 "Hg10 mi
4:55 PM78 °FSunny.No wind27%30.13 "Hg10 mi
4:35 PM77 °FSunny.5 mph28%30.13 "Hg10 mi
4:15 PM77 °FSunny.7 mph29%30.14 "Hg10 mi
3:55 PM76 °FSunny.6 mph29%30.15 "Hg10 mi
3:35 PM75 °FSunny.No wind31%30.15 "Hg10 mi
3:15 PM75 °FSunny.5 mph30%30.15 "Hg10 mi
Weather by CustomWeather, © 2016

See weather overviewHow to use our weather pages